• In Belarus
  • List of Countries
  • For 7 days
  • Water Temperature
  • Weather Map
  • Weather Widgets
  • user-avatar
    Login

    Hourly Weather Lozenec

    Today, 8 April, Wednesday

    Time Temperature Precipitation Wind Pressure Humidity
    00:00 +4°C° 0 mm 6 mps 769 mmHg 83%
    01:00 +4°C° 0 mm 6 mps 769 mmHg 84%
    02:00 +5°C° 0 mm 5 mps 768 mmHg 86%
    03:00 +4°C° 0 mm 6 mps 768 mmHg 86%
    04:00 +4°C° 0 mm 6 mps 768 mmHg 86%
    05:00 +4°C° 0 mm 6 mps 768 mmHg 87%
    06:00 +5°C° 0 mm 6 mps 768 mmHg 82%
    07:00 +6°C° 0 mm 7 mps 768 mmHg 77%
    08:00 +8°C° 0 mm 7 mps 768 mmHg 71%
    09:00 +9°C° 0 mm 7 mps 768 mmHg 68%
    10:00 +9°C° 0 mm 6 mps 767 mmHg 65%
    11:00 +10°C° 0 mm 6 mps 767 mmHg 62%
    12:00 +10°C° 0 mm 7 mps 767 mmHg 61%
    13:00 +10°C° 0 mm 7 mps 767 mmHg 60%
    14:00 +10°C° 0 mm 7 mps 766 mmHg 59%
    15:00 +9°C° 0 mm 7 mps 766 mmHg 62%
    16:00 +9°C° 0 mm 6 mps 766 mmHg 64%
    17:00 +8°C° 0 mm 6 mps 766 mmHg 66%
    18:00 +7°C° 0 mm 6 mps 766 mmHg 72%
    19:00 +6°C° 0 mm 5 mps 766 mmHg 78%
    20:00 +5°C° 0 mm 5 mps 765 mmHg 84%
    21:00 +5°C° 0 mm 4 mps 765 mmHg 85%
    22:00 +4°C° 0 mm 4 mps 765 mmHg 86%
    23:00 +4°C° 0 mm 4 mps 765 mmHg 87%

    Tomorrow, 9 April, Thursday

    Time Temperature Precipitation Wind Pressure Humidity
    00:00 +4°C° 0 mm 4 mps 765 mmHg 88%
    01:00 +3°C° 0 mm 4 mps 764 mmHg 88%
    02:00 +3°C° 0 mm 4 mps 764 mmHg 89%
    03:00 +3°C° 0 mm 4 mps 764 mmHg 84%
    04:00 +2°C° 0 mm 3 mps 764 mmHg 79%
    05:00 +2°C° 0 mm 3 mps 764 mmHg 74%
    06:00 +4°C° 0 mm 3 mps 764 mmHg 67%
    07:00 +5°C° 0 mm 4 mps 764 mmHg 61%
    08:00 +7°C° 0 mm 4 mps 764 mmHg 55%
    09:00 +8°C° 0 mm 4 mps 763 mmHg 53%
    10:00 +11°C° 0 mm 4 mps 763 mmHg 52%
    11:00 +12°C° 0 mm 5 mps 763 mmHg 50%
    12:00 +13°C° 0 mm 4 mps 763 mmHg 49%
    13:00 +13°C° 0 mm 4 mps 763 mmHg 48%
    14:00 +14°C° 0 mm 4 mps 762 mmHg 47%
    15:00 +13°C° 0 mm 3 mps 762 mmHg 49%
    16:00 +14°C° 0 mm 2 mps 762 mmHg 51%
    17:00 +14°C° 0 mm 2 mps 762 mmHg 52%
    18:00 +12°C° 0 mm 1 mps 762 mmHg 56%
    19:00 +10°C° 0 mm 1 mps 762 mmHg 61%
    20:00 +9°C° 0 mm 1 mps 762 mmHg 65%
    21:00 +9°C° 0 mm 1 mps 762 mmHg 64%
    22:00 +8°C° 0 mm 1 mps 762 mmHg 63%
    23:00 +8°C° 0 mm 1 mps 762 mmHg 62%

    Day after tomorrow, 10 April, Friday

    Time Temperature Precipitation Wind Pressure Humidity
    00:00 +7°C° 0 mm 2 mps 761 mmHg 62%
    01:00 +7°C° 0 mm 2 mps 761 mmHg 62%
    02:00 +7°C° 0 mm 2 mps 760 mmHg 62%
    03:00 +7°C° 0 mm 2 mps 760 mmHg 64%
    04:00 +7°C° 0 mm 2 mps 760 mmHg 67%
    05:00 +7°C° 0 mm 2 mps 760 mmHg 69%
    06:00 +9°C° 0 mm 2 mps 760 mmHg 67%
    07:00 +10°C° 0 mm 2 mps 760 mmHg 64%
    08:00 +12°C° 0 mm 3 mps 760 mmHg 62%
    09:00 +14°C° 0 mm 2 mps 760 mmHg 59%
    10:00 +16°C° 0 mm 2 mps 760 mmHg 55%
    11:00 +17°C° 0 mm 2 mps 760 mmHg 51%
    12:00 +18°C° 0 mm 2 mps 760 mmHg 51%
    13:00 +18°C° 0 mm 2 mps 760 mmHg 50%
    14:00 +19°C° 0 mm 2 mps 760 mmHg 49%
    15:00 +18°C° 0 mm 2 mps 760 mmHg 52%
    16:00 +18°C° 0 mm 2 mps 759 mmHg 55%
    17:00 +17°C° 0 mm 2 mps 759 mmHg 58%
    18:00 +15°C° 0 mm 2 mps 760 mmHg 61%
    19:00 +14°C° 0 mm 2 mps 760 mmHg 64%
    20:00 +12°C° 0 mm 1 mps 760 mmHg 67%
    21:00 +12°C° 0 mm 1 mps 760 mmHg 66%
    22:00 +12°C° 0 mm 1 mps 761 mmHg 65%
    23:00 +11°C° 0 mm 0 mps 761 mmHg 64%

    11 April, Saturday

    Time Temperature Precipitation Wind Pressure Humidity
    00:00 +12°C° 0 mm 1 mps 761 mmHg 63%
    01:00 +12°C° 0 mm 1 mps 761 mmHg 63%
    02:00 +12°C° 0 mm 2 mps 762 mmHg 62%
    03:00 +10°C° 0 mm 3 mps 762 mmHg 68%
    04:00 +10°C° 0 mm 3 mps 762 mmHg 74%
    05:00 +8°C° 0 mm 4 mps 762 mmHg 80%
    06:00 +10°C° 0 mm 4 mps 763 mmHg 78%
    07:00 +10°C° 0 mm 4 mps 763 mmHg 75%
    08:00 +11°C° 0 mm 3 mps 763 mmHg 72%
    09:00 +12°C° 0 mm 4 mps 764 mmHg 68%
    10:00 +12°C° 0 mm 4 mps 764 mmHg 63%
    11:00 +13°C° 0 mm 4 mps 764 mmHg 58%
    12:00 +12°C° 0 mm 4 mps 764 mmHg 60%
    13:00 +12°C° 0 mm 4 mps 764 mmHg 62%
    14:00 +11°C° 0 mm 3 mps 764 mmHg 64%
    15:00 +11°C° 0 mm 3 mps 764 mmHg 65%
    16:00 +10°C° 0 mm 3 mps 764 mmHg 66%
    17:00 +10°C° 0 mm 2 mps 764 mmHg 67%
    18:00 +9°C° 0 mm 2 mps 764 mmHg 70%
    19:00 +9°C° 0 mm 2 mps 765 mmHg 73%
    20:00 +8°C° 0 mm 2 mps 765 mmHg 76%
    21:00 +8°C° 0 mm 1 mps 765 mmHg 78%
    22:00 +8°C° 0 mm 1 mps 765 mmHg 81%
    23:00 +7°C° 0 mm 1 mps 765 mmHg 83%

    12 April, Sunday

    Time Temperature Precipitation Wind Pressure Humidity
    00:00 +7°C° 0 mm 1 mps 765 mmHg 82%
    01:00 +6°C° 0 mm 1 mps 765 mmHg 81%
    02:00 +6°C° 0 mm 1 mps 765 mmHg 81%
    03:00 +6°C° 0 mm 1 mps 765 mmHg 80%
    04:00 +6°C° 0 mm 1 mps 765 mmHg 79%
    05:00 +4°C° 0 mm 2 mps 765 mmHg 79%
    06:00 +6°C° 0 mm 2 mps 765 mmHg 73%
    07:00 +7°C° 0 mm 2 mps 766 mmHg 68%
    08:00 +9°C° 0 mm 2 mps 766 mmHg 63%
    09:00 +10°C° 0 mm 3 mps 766 mmHg 59%
    10:00 +11°C° 0 mm 3 mps 766 mmHg 56%
    11:00 +12°C° 0 mm 4 mps 766 mmHg 52%
    12:00 +12°C° 0 mm 3 mps 766 mmHg 51%
    13:00 +12°C° 0 mm 3 mps 766 mmHg 50%
    14:00 +12°C° 0 mm 3 mps 766 mmHg 49%
    15:00 +12°C° 0 mm 3 mps 765 mmHg 51%
    16:00 +11°C° 0 mm 3 mps 765 mmHg 53%
    17:00 +11°C° 0 mm 3 mps 765 mmHg 55%
    18:00 +9°C° 0 mm 2 mps 765 mmHg 62%
    19:00 +8°C° 0 mm 2 mps 765 mmHg 69%
    20:00 +6°C° 0 mm 2 mps 765 mmHg 76%
    21:00 +7°C° 0 mm 1 mps 764 mmHg 79%
    22:00 +7°C° 0 mm 1 mps 764 mmHg 82%
    23:00 +6°C° 0 mm 1 mps 764 mmHg 85%

    13 April, Monday

    Time Temperature Precipitation Wind Pressure Humidity
    00:00 +6°C° 0 mm 1 mps 764 mmHg 86%
    01:00 +6°C° 0 mm 1 mps 763 mmHg 87%
    02:00 +5°C° 0 mm 1 mps 763 mmHg 88%
    03:00 +5°C° 0 mm 1 mps 763 mmHg 86%
    04:00 +5°C° 0 mm 1 mps 762 mmHg 84%
    05:00 +5°C° 0 mm 1 mps 762 mmHg 83%
    06:00 +7°C° 0 mm 1 mps 762 mmHg 74%
    07:00 +9°C° 0 mm 1 mps 762 mmHg 66%
    08:00 +11°C° 0 mm 1 mps 762 mmHg 57%
    09:00 +12°C° 0 mm 1 mps 761 mmHg 52%
    10:00 +14°C° 0 mm 1 mps 761 mmHg 46%
    11:00 +15°C° 0 mm 1 mps 761 mmHg 41%
    12:00 +16°C° 0 mm 2 mps 760 mmHg 42%
    13:00 +16°C° 0 mm 3 mps 760 mmHg 44%
    14:00 +16°C° 0 mm 3 mps 759 mmHg 45%
    15:00 +16°C° 0 mm 3 mps 759 mmHg 48%
    16:00 +14°C° 0 mm 4 mps 758 mmHg 52%
    17:00 +14°C° 0 mm 4 mps 757 mmHg 55%
    18:00 +13°C° 0 mm 4 mps 757 mmHg 60%
    19:00 +11°C° 0 mm 3 mps 757 mmHg 65%
    20:00 +10°C° 0 mm 3 mps 756 mmHg 70%
    21:00 +10°C° 0 mm 3 mps 756 mmHg 70%
    22:00 +10°C° 0 mm 3 mps 756 mmHg 69%
    23:00 +10°C° 0 mm 3 mps 755 mmHg 69%
    Show more